Погода в Буланихе

Россия / Алтайский край     52°48′06″N   84°55′50″E
темп.,
°C
ветер,
м/с
пор.,
м/с
влажн.,
%
обл.,
%
осадки,
мм/ч
давл.,
гПа
погр.,
м
21 апреля, ср
ср2101:00−11в22895 0.0 102820
04:00−12вюв22915 0.0 102623
07:00−11вюв2290100 0.0 102634
10:00−6юв2375100 0.0 1026302
13:00−4юв2265100 0.0 1024573
16:00−2в216278 0.0 1024567
19:00−2вюв3475100 0.0 1025218
22:00−5вюв368389 0.0 1027122
22 апреля, чт
чт2201:00−5в3684100 0.0 1028134
04:00−4св358297 0.0 1029102
07:00−5св3792100 0.0 1032170
10:00−2ссв458385 0.0 1034683
13:000с457396 0.2 1035976
16:00+1ссв577168 0.4 10361023
19:00+1с377184 1.0 1038255
22:00−1ссв714755 0.0 1040440
23 апреля, пт
пт2301:00−2ссв614805 0.0 1040368
04:00−2ссв612815 0.0 1040280
07:00−3ссв612808 0.0 1041347
10:00+1ссв686683 0.0 1040528
13:00+4св6750100 0.0 10391381
16:00+5ссв5746100 0.0 10381771
19:00+4с486595 0.1 1038223
22:00+1ссв6137927 0.0 1038341
24 апреля, сб
сб2401:000ссв51185100 0.0 1036284
04:000с4885100 0.0 1035223
07:00−1ссз368775 0.0 1034244
10:00+2ссз3473100 0.0 1033635
13:00+4сз3467100 0.1 10321080
16:00+4сз4472100 0.3 1031913
19:00+2зсз3598100 0.9 1032285
22:00+1зсз3599100 0.8 1032328
25 апреля, вс
вс2501:000зсз2398100 1.3 1031342
04:00+1з1199100 0.2 1031211
07:00+1зсз1299100 0.3 1032141
10:00+1зсз119298 0.1 1033376
13:00+3з228386 0.2 1033480
16:00+5сз226895 0.1 10321071
19:00+5всв117379 0.3 1032329
22:00+2ююв239092 0.0 103366